logo
Search for airport 
image banner adimage banner adimage banner ad
image banner ad

YXEA - Eadglehawk Neck Medical

Located in , Australia

ICAO - , IATA -

Data provided by Airmate  

General information

Coordinates: S43°0'54" E147°55'32"
Elevation is 13 feet MSL.
 
View others Airports in Tasmania

Operational data

Special qualification required
Current time UTC:
Current local time:
Weather at : YMHB - Hobart ( 39 km )
METAR: YMHB 242030Z 31001KT CAVOK 05/04 Q1015 OVC170
TAF: TAF YMHB 242013Z 2421/2518 35008KT CAVOK
View NOTAMs / SUP AIP / TFR affecting this airport [VIEW]
Communications frequencies: [VIEW]

Runways:

Airport contact information

Address: Australia

Satellite view of YXEA